Notices

What's New in latest Release from April 7th, 2021:

- Updated Glossary, including Speed of Maximum Gust, and Total Hourly Precipitation

- Updated national and regional climate services offices contacts and prices information

- Addition of station inventory lists for 1981-2010, 1971-2000, and 1961-1990 Normals.

If you haven't already, please take our survey and provide feedback about our website: https://eccc.sondage-survey.ca/f/LanguageSelection.aspx?s=442ca660-fcf1-47c0-95a9-59707d6fd709

Hourly Data Report for January 26, 2021

STE-ANNE-DE-BELLEVUE 1
QUEBEC
Current Station Operator: ECCC - MSC

45°25'38.000" N
73°55'45.000" W
39.00 m
702FHL8
71377
WVQ

Download Data

Hourly Data (January 2021)
Hourly Data Report for January 26, 2021
TIME
LST
Temp Definition
°C
Dew Point Definition
°C
Rel Hum Definition
%
Precip. Amount Definition
mm

Wind Dir Definition
10's deg

Wind Spd Definition
km/h
Visibility Definition
km
Stn Press Definition
kPa
Hmdx Definition


Wind Chill Definition


Weather Definition


00:00 -7.0 -9.5 82 0.0 4 1   101.49   -8 LegendNANA
01:00 -7.2 -9.4 84 0.0 23 1   101.47   -8 LegendNANA
02:00 -6.8 -9.1 83 0.0   0   101.47     LegendNANA
03:00 -7.5 -9.7 84 0.0 33 2   101.47   -9 LegendNANA
04:00 -8.4 -9.8 89 0.0 33 3   101.46   -10 LegendNANA
05:00 -8.3 -10.0 88 0.0 34 7   101.46   -12 LegendNANA
06:00 -7.9 -9.8 86 0.0 1 4   101.46   -10 LegendNANA
07:00 -8.1 -9.9 87 0.0 36 6   101.49   -11 LegendNANA
08:00 -8.4 -10.5 85 0.0 2 10   101.48   -13 LegendNANA
09:00 -8.2 -10.4 84 0.0 3 9   101.49   -13 LegendNANA
10:00 -7.4 -10.1 81 0.0 3 9   101.46   -12 LegendNANA
11:00 -6.0 -9.8 75 0.0 5 13   101.37   -11 LegendNANA
12:00 -4.9 -9.5 71 0.0 7 9   101.27   -9 LegendNANA
13:00 -4.4 -9.2 70 0.0 6 11   101.11   -9 LegendNANA
14:00 -4.8 -9.7 69 0.0 4 12   101.07   -10 LegendNANA
15:00 -4.9 -9.5 70 0.0 4 12   101.09   -10 LegendNANA
16:00 -4.9 -9.1 72 0.0 4 12   101.00   -10 LegendNANA
17:00 -4.8 -8.9 73 0.0 5 15   100.93   -10 LegendNANA
18:00 -4.6 -8.6 73 0.0 5 10   101.01   -9 LegendNANA
19:00 -5.8 -7.0 91 0.2 4 11   101.01   -11 LegendNANA
20:00 -6.1 -7.2 92 0.9 4 13   100.98   -11 LegendNANA
21:00 -6.1 -7.1 93 1.1 5 14   100.94   -12 LegendNANA
22:00 -6.2 -7.2 93 0.8 4 12   100.93   -11 LegendNANA
23:00 -6.5 -7.5 93 1.0 4 12   100.89   -12 LegendNANA

Notes on Data Quality.

Legend

  • E = Estimated
  • M = Missing
  • NA = Not Available*
  • [empty] = Indicates an unobserved value
Date modified: